Location: Unspecified
(0.0000°N, 0.0000°E)
Time: 17:44:13
(UTC+00:00)

ISS - Pass Details

Date: 19 October 2021
Orbit: 417 x 423 km, 51.6° (Epoch: 24 October)

Event Time Altitude Azimuth Distance (km) Brightness Sun altitude
Exits shadow 04:03:58 20° 43° (NE) 1,045 -1.5 -24.8°
Drops below altitude 10° 04:05:05 10° 40° (NE) 1,491 -0.6 -24.6°
Sets 04:07:10 0° 38° (NE) 2,350 0.4 -24.1°
